Flag for Germany Weather past 2 weeks in Cottbus, Brandenburg, Germany

Now
65 °F

Overcast.


Feels Like: 65 °F
Forecast: 49 / 66 °F
Wind: 6 mph from East

Location: Cottbus


UV Index: 3 (Moderate)

Visibility: 25 mi


Pressure: 29.82 "Hg

Humidity: 40%

Dew point: 40 °F

Location of CottbusLocation

Historic Weather in Cottbus

°F

Cottbus temperature yesterday

Maximum temperature yesterday: 70 °F (at 6:00 PM)
Minimum temperature yesterday: 32 °F (at 4:00 AM)
Average temperature yesterday: 52 °F

Past Weeks' High & Low Weather Summary

 TemperatureHumidityPressure
High70 °F (Apr 19, 6:00 PM)99% (Apr 16, 7:00 AM)30.44 "Hg (Apr 16, 7:00 AM)
Low29 °F (Apr 17, 6:00 AM)29% (Apr 17, 5:00 PM)29.72 "Hg (Apr 14, 1:00 PM)
Average50 °F72%30.03 "Hg
* Reported Apr 5 7:00 PM — Apr 20 7:00 PM, Cottbus, Weather by CustomWeather, © 2014

Note: Actual official high and low records may vary slightly from our data, if they occured in-between our weather recording intervals... More about our weather records

Advertising

Historic Weather Conditions — Data for Previous 24 hours

 ConditionsComfort  
Time TempWeatherWind HumidityBarometerVisibility
7:00 PM
Apr 20
65 °FOvercast.6 mph40%29.82 "Hg25 mi
6:00 PM65 °FOvercast.6 mph44%29.83 "Hg22 mi
5:00 PM66 °FOvercast.6 mph42%29.85 "Hg25 mi
4:00 PM66 °FOvercast.7 mph42%29.86 "Hg19 mi
3:00 PM64 °FPartly sunny.7 mph43%29.88 "Hg25 mi
2:00 PM65 °FPartly sunny.7 mph43%29.89 "Hg22 mi
1:00 PM63 °FScattered clouds.7 mph49%29.90 "Hg22 mi
12:00 PM63 °FPassing clouds.7 mph53%29.90 "Hg22 mi
11:00 AM61 °FPassing clouds.7 mph57%29.92 "Hg19 mi
10:00 AM59 °FScattered clouds.6 mph64%29.91 "Hg19 mi
9:00 AM57 °FPartly sunny.5 mph66%29.92 "Hg19 mi
8:00 AM57 °FPassing clouds.5 mph69%29.91 "Hg16 mi
7:00 AM56 °FScattered clouds.3 mph71%29.90 "Hg12 mi
6:00 AM56 °FOvercast.3 mph71%29.89 "Hg11 mi
5:00 AM57 °FOvercast.5 mph66%29.89 "Hg11 mi
4:00 AM57 °FOvercast.2 mph65%29.90 "Hg12 mi
3:00 AM57 °FOvercast.2 mph66%29.92 "Hg9 mi
2:00 AM59 °FOvercast.3 mph61%29.93 "Hg10 mi
1:00 AM60 °FPassing clouds.3 mph57%29.93 "Hg11 mi
12:00 AM63 °FOvercast.5 mph51%29.93 "Hg7 mi
11:00 PM
Apr 19
64 °FOvercast.5 mph48%29.93 "Hg8 mi
10:00 PM64 °FPassing clouds.3 mph48%29.93 "Hg8 mi
9:00 PM66 °FPassing clouds.5 mph44%29.94 "Hg9 mi
8:00 PM67 °FPartly sunny.5 mph42%29.93 "Hg12 mi
Weather by CustomWeather, © 2014

See weather overview